COSMOS 755

Satellite information

Favourite Embed

Satellite Type and Status

PAYLOADIN ORBIT

Key statistics

Satellite COSMOS 755 at a glance.

Uptime

18385

Days in orbit

Revolutions

≈ 13.7

Per day

Orbit

LEO

Low Earth Orbit

Inclination

82.9

Latest

Satellite identification and parameters

Extended collection of information and parameters for COSMOS 755.

Object identification

Identified? True

Debris? False

Object name: COSMOS 755

International designator: 1975-074A

Object number (NORAD): 8072

Object ID (CCSDS): 8072

Country: COMMONWEALTH OF INDEPENDENT STATES (CIS)

Current information (Y/N): Y

RCS size: LARGE

Orbital parameters

Period: 104.788 minutes

Inclination: 82.9054 deg

SMA: 7362.67 km

Apoapsis: 1004.379 km

Periapsis: 964.691 km

RAAN: 223.7892 deg

Eccentricy: 0.00269522

Argument of periapsis: 307.4174 deg

Mean anomaly: 174.0386 deg

Mean motion: 13.74199368 rev/day

Mean motion (dot): 0.00000064 rev/day2

B* drag term: 0.000051792272 1/REarth

Two-line elements (TLE)

Creation date: Dec. 12, 2025, 10:14 a.m.

Reference frame: TEME

Reference center: EARTH

Epoch: Dec. 12, 2025, 4:42 a.m. UTC

TLE line 0: 0 COSMOS 755

TLE line 1: 1 08072U 75074A 25346.19611750 .00000064 00000-0 51792-4 0 9998

TLE line 2: 2 08072 82.9054 223.7892 0026952 307.4174 174.0386 13.74199368522829

Live tracking on map

Real-time ground track for satellite COSMOS 755.

In-orbit conjunctions

A list of the most updated potential collisions computed for object COSMOS 755.

Target Orbit TCA Probability of collision Miss distance Type
NIMBUS 2 DEB SSO 2025-10-18 01:39:58 0.0001912757 230.0 (m) DEBRIS
COSMOS 2251 DEB LEO 2025-09-24 00:50:54 0.0002512198 612.0 (m) DEBRIS
ARIANE 44P R/B MEO 2025-07-10 02:55:05 0.0007104016 215.0 (m) ROCKET BODY
CZ-4C DEB SSO 2025-05-25 22:04:03 0.0001848168 876.0 (m) DEBRIS
FENGYUN 1C DEB SSO 2025-01-18 11:06:34 0.001000894 228.0 (m) DEBRIS

Associated space launch

Navigation satellite providing location information for the Tsiklon-B navigation system

COSMOS 755 was lifted into orbit during the mission ‘Kosmos-3M | Parus 3’, on board a Kosmos-3M space rocket.

The launch took place on Aug. 14, 1975, 1:29 p.m. from 132/1 (132L).

For more information about the launch, click the button.

Launch to space Kosmos-3M | Parus 3
Kosmos-3M | Parus 3

Agency: N/A

Status: Launch Successful

Launch date: Aug. 14, 1975, 1:29 p.m. UTC

Rocket: Kosmos-3M

Launch pad: 132/1 (132L)

Location: Plesetsk Cosmodrome, Russian Federation

...

Latest news about this satellite

There are no fresh news available about this satellite. Check back as we update our databases every day.


Newsletter sign-up

Weekly statistics, charts and insights to help you stay on top of the space industry.